Flag for India Weather past 2 weeks in Chhindwara, Madhya Pradesh, India

Now
88 °F

Scattered clouds.


Feels Like: 96 °F
Forecast: 73 / 84 °F
Wind: 10 mph from Northwest

Location: Nagpur Sonegaon

Current Time: Jul 30, 2015 at 12:44:49 PM

Latest Report: Jul 30, 2015 at 12:10 PM


Visibility: 4 mi

Pressure: 29.74 "Hg (27.53 "Hg at 687m altitude)

Humidity: 62%

Dew point: 73 °F

Location of ChhindwaraLocation

Historic Weather in Chhindwara — Graph

°F

Chhindwara temperature yesterday

Maximum temperature yesterday: 91 °F (at 4:40 PM)
Minimum temperature yesterday: 73 °F (at 1:40 AM)
Average temperature yesterday: 83 °F

Past Weeks' High & Low Weather Summary

 TemperatureHumidityPressure
High100 °F (Jul 15, 1:40 PM)100% (Jul 20, 7:40 AM)29.80 "Hg (Jul 20, 7:40 AM)
Low73 °F (Jul 24, 2:40 AM)44% (Jul 16, 2:10 PM)29.47 "Hg (Jul 15, 4:40 PM)
Average82 °F78%29.64 "Hg
* Reported Jul 15 10:40 AM — Jul 30 11:10 AM, Chhindwara, Weather by CustomWeather, © 2015

Note: Actual official high and low records may vary slightly from our data, if they occured in-between our weather recording intervals... More about our weather records

Advertising

Chhindwara weather history for previous 24 hours

 ConditionsComfort  
Time TempWeatherWind HumidityBarometerVisibility
11:10 AM
Thu, Jul 30
84 °FScattered clouds.9 mph70%29.77 "Hg4 mi
10:40 AM86 °FScattered clouds.9 mph66%29.77 "Hg4 mi
9:40 AM82 °FScattered clouds.9 mph74%29.77 "Hg4 mi
9:10 AM81 °FPartly sunny.10 mph79%29.77 "Hg4 mi
8:40 AM81 °FPartly sunny.7 mph79%29.77 "Hg4 mi
8:10 AM79 °FPartly sunny.7 mph79%29.77 "Hg4 mi
7:40 AM79 °FPartly sunny.6 mph79%29.77 "Hg4 mi
3:40 AM75 °FPartly cloudy.3 mph83%29.74 "Hg2 mi
3:10 AM75 °FPartly cloudy.No wind83%29.74 "Hg2 mi
2:40 AM75 °FPassing clouds.5 mph83%29.71 "Hg3 mi
1:40 AM75 °FPassing clouds.1 mph78%29.71 "Hg3 mi
12:10 AM77 °FPassing clouds.6 mph79%29.74 "Hg3 mi
11:40 PM
Wed, Jul 29
79 °FPassing clouds.3 mph74%29.74 "Hg3 mi
11:10 PM79 °FPassing clouds.3 mph74%29.74 "Hg3 mi
10:40 PM81 °FPassing clouds.2 mph70%29.74 "Hg3 mi
10:10 PM81 °FPassing clouds.3 mph70%29.74 "Hg3 mi
9:40 PM82 °FPassing clouds.9 mph66%29.74 "Hg3 mi
9:10 PM82 °FPassing clouds.9 mph66%29.71 "Hg3 mi
8:40 PM84 °FPassing clouds.12 mph62%29.71 "Hg3 mi
8:10 PM84 °FPassing clouds.7 mph70%29.71 "Hg3 mi
7:40 PM82 °FPassing clouds.3 mph74%29.68 "Hg3 mi
6:40 PM88 °FHaze.5 mph66%29.65 "Hg3 mi
6:10 PM88 °FPassing clouds.5 mph62%29.65 "Hg4 mi
5:40 PM90 °FPassing clouds.8 mph63%29.65 "Hg4 mi
5:10 PM90 °FScattered clouds.9 mph63%29.65 "Hg4 mi
4:40 PM91 °FScattered clouds.10 mph59%29.65 "Hg4 mi
4:10 PM90 °FScattered clouds.14 mph63%29.68 "Hg4 mi
3:40 PM90 °FScattered clouds.10 mph63%29.68 "Hg4 mi
3:10 PM90 °FScattered clouds.12 mph59%29.68 "Hg4 mi
2:40 PM90 °FScattered clouds.8 mph67%29.71 "Hg4 mi
2:10 PM88 °FBroken clouds.9 mph62%29.71 "Hg4 mi
1:40 PM88 °FBroken clouds.9 mph66%29.74 "Hg4 mi
1:10 PM88 °FBroken clouds.10 mph62%29.74 "Hg4 mi
12:40 PM88 °FBroken clouds.12 mph62%29.74 "Hg4 mi
12:10 PM88 °FBroken clouds.10 mph62%29.77 "Hg4 mi
Weather by CustomWeather, © 2015

See weather overviewHow to use our weather pages